Location: Buenos Aires
(34.6076°S, 58.4371°W)
Time: 13:07:49
(UTC-03:00)

Envisat - Pass Details

Date: 03 July 2021
Orbit: 764 x 766 km, 98.2° (Epoch: 03 August)

Event Time Altitude Azimuth Distance (km) Brightness Sun altitude
Rises 06:44:48 0° 330° (NNW) 3,220 6.1 -15.4°
Reaches altitude 10° 06:48:07 10° 307° (NW) 2,305 5.1 -14.7°
Enters shadow 06:49:37 14° 290° (WNW) 2,058 4.8 -14.4°
